This demonstration page uses our WeatherBlox Daily Observations layout. Learn more.

Left ArrowRight Arrow

34.02893, -84.19858

Hourly Observations for August 24, 2015

Temp ( °F °C ) Dew Point ( °F °C ) Humidity (%) Winds ( mph kmh ) Pressure ( in mb ) Visibility ( mi km ) Precip ( " mm )
12:53 am 00:53 Clear 73 22.8 71 21.7 94 94 Calm 29.93 1014 10 16 0.00 0.00
1:53 am 01:53 Clear 72 22.2 71 21.7 97 97 Calm 29.94 1014 10 16 0.00 0.00
2:53 am 02:53 Clear 71 21.7 71 21.7 100 100 Calm 29.94 1014 10 16 0.00 0.00
3:53 am 03:53 Clear 73 22.8 71 21.7 94 94 NW 3 6 29.92 1013 10 16 0.00 0.00
4:53 am 04:53 Clear 72 22.2 71 21.7 97 97 W 3 6 29.91 1013 10 16 0.00 0.00
5:53 am 05:53 Clear 72 22.2 71 21.7 97 97 NW 6 9 29.92 1013 10 16 0.00 0.00
6:53 am 06:53 Clear 72 22.2 71 21.7 97 97 NW 6 9 29.92 1013 10 16 0.00 0.00
7:53 am 07:53 Sunny 74 23.3 71 21.7 91 91 NNW 5 7 29.93 1014 10 16 0.00 0.00
8:53 am 08:53 Sunny 78 25.6 72 22.2 82 82 NNW 7 11 29.94 1014 10 16 0.00 0.00
9:53 am 09:53 Sunny 81 27.2 72 22.2 74 74 NW 10 17 29.95 1014 10 16 0.00 0.00
10:53 am 10:53 Sunny 85 29.4 72 22.2 65 65 NNW 9 15 29.95 1014 10 16 0.00 0.00
11:53 am 11:53 Sunny 86 30 72 22.2 63 63 N 8 13 29.95 1014 10 16 0.00 0.00
12:53 pm 12:53 Mostly Sunny 87 30.6 70 21.1 57 57 N 9 15 29.94 1014 10 16 0.00 0.00
1:53 pm 13:53 Partly Cloudy 88 31.1 71 21.7 57 57 NNW 7 11 29.93 1013 10 16 0.00 0.00
2:53 pm 14:53 Mostly Cloudy 89 31.7 71 21.7 55 55 WNW 7 11 29.91 1013 10 16 0.00 0.00
3:53 pm 15:53 Mostly Sunny 88 31.1 70 21.1 55 55 NW 10 17 29.89 1012 10 16 0.00 0.00
4:53 pm 16:53 Sunny 90 32.2 70 21.1 52 52 NW 7 11 29.88 1012 10 16 0.00 0.00
5:53 pm 17:53 Partly Cloudy 89 31.7 69 20.6 52 52 WNW 8 13 29.87 1011 10 16 0.00 0.00
6:53 pm 18:53 Mostly Sunny 87 30.6 70 21.1 57 57 NW 9 15 29.87 1011 10 16 0.00 0.00
7:53 pm 19:53 Sunny 84 28.9 69 20.6 61 61 NNW 8 13 29.87 1012 10 16 0.00 0.00
8:53 pm 20:53 Clear 81 27.2 69 20.6 67 67 NNW 5 7 29.88 1012 10 16 0.00 0.00
9:53 pm 21:53 Clear 79 26.1 69 20.6 72 72 NW 6 9 29.89 1012 10 16 0.00 0.00
10:53 pm 22:53 Clear 78 25.6 66 18.9 67 67 NW 9 15 29.90 1012 10 16 0.00 0.00
11:53 pm 23:53 Clear 76 24.4 63 17.2 64 64 NW 7 11 29.90 1012 10 16 0.00 0.00

Powered by AerisWeather